RH
92 95 98 100 69 55 60 80 100 100 100 100 100 100 100 100 100 100 100 100 100 100 100 100 100 88 72 73 70 74 72 62 59 59 60 70 64 68 73 77 74 54 44 43
100 99 96 83 76 70 64 59 65 79 92 94 100 100 100 100 100 100 100 100 100 100 100 100 100 100 91 84 80 73 78 75 66 66 62 56 70 81 74 57 66 69 90 93
100 100 94 98 90 91 84 68 57 57 61 60 65 87 100 100 100 100 100 100 100 100 100 100 100 100 100 100 100 96 81 76 74 81 71 72 66 85 100 93 89 93 82 92
100 100 100 100 96 92 91 98 91 83 62 66 68 64 79 88 98 100 100 100 100 100 100 99 88 98 100 100 100 100 98 100 86 82 94 99 80 61 70 68 61 70 78 97
100 100 98 100 98 92 95 93 90 86 86 80 86 80 100 86 87 84 81 85 92 97 100 100 100 100 98 98 99 98 96 97 91 80 78 85 99 83 70 82 86 80 97 100
100 100 96 95 98 100 98 88 88 96 89 87 82 68 80 86 83 71 74 78 70 72 73 72 84 85 77 76 80 80 80 84 85 82 78 77 86 100 85 86 79 78 70 71
97 100 92 91 100 100 100 93 88 95 94 86 86 71 79 91 91 86 70 57 56 59 62 64 67 71 75 75 75 76 81 77 68 68 73 71 82 100 94 83 93 98 89 83
51 71 88 100 99 100 98 97 99 98 92 90 87 84 97 100 78 60 61 60 52 49 46 48 59 70 86 94 90 82 74 64 60 57 56 54 60 73 84 82 85 91 100 98
74 79 86 94 94 94 94 100 100 100 100 88 77 79 90 74 57 36 37 42 52 61 67 68 57 53 50 52 58 61 63 62 56 52 42 46 50 50 67 73 79 91 93 100
70 86 87 78 89 97 100 100 100 89 72 69 79 80 73 63 73 89 85 63 59 58 62 65 64 54 44 39 40 42 38 39 37 34 30 28 33 44 58 61 64 76 100 100
75 80 97 96 99 100 99 90 83 77 74 73 86 98 99 100 99 88 73 60 50 44 36 28 23 23 24 24 23 21 22 25 27 26 29 38 42 56 65 72 78 91 100 100
88 95 100 99 94 92 85 78 86 93 90 99 100 100 100 89 79 63 50 44 38 33 29 26 22 17 18 18 14 15 14 13 11 16 20 23 26 34 52 64 78 88 100 100
85 98 99 96 97 80 86 99 92 100 100 95 84 76 80 68 58 50 35 32 28 29 26 19 15 13 10 7 10 8 7 8 8 9 11 14 25 27 35 46 62 100 100 100
88 97 93 92 93 95 99 96 100 90 85 73 65 80 64 55 44 40 48 55 35 22 16 11 8 6 5 5 4 4 3 4 4 5 6 7 11 21 31 39 59 82 100 100
98 98 98 97 97 88 96 96 78 77 89 98 78 62 54 42 45 56 55 55 35 25 16 8 4 3 3 5 6 6 5 5 7 7 6 10 14 20 30 45 60 79 78 89
100 100 100 94 91 98 82 81 77 82 97 75 72 57 44 51 56 68 75 83 49 22 15 8 4 4 5 6 6 7 7 8 9 10 9 13 19 28 41 59 76 92 95 96
100 100 99 92 85 81 80 77 89 70 51 79 52 58 54 68 65 78 92 98 59 45 22 11 6 6 8 9 9 10 12 14 15 19 24 27 35 48 63 80 86 93 100 100
90 100 95 84 84 78 72 72 74 52 68 58 61 61 68 78 73 80 96 99 80 66 64 49 50 62 38 27 15 20 30 32 27 24 33 42 52 60 79 87 98 100 100 100
98 82 79 74 79 83 79 83 86 61 63 67 72 70 78 79 78 71 84 100 100 95 72 66 61 60 53 42 31 38 43 50 40 69 56 61 79 97 100 100 100 100 100 100
79 73 68 69 66 66 65 81 69 64 70 89 85 70 75 82 84 70 81 100 100 100 100 93 92 95 87 80 85 84 86 100 100 100 100 100 100 100 96 100 100 100 100 100
85 78 60 64 67 69 76 68 78 79 89 89 88 83 73 78 98 82 70 86 100 100 92 81 76 90 100 94 97 100 100 100 94 100 100 100 100 100 100 100 100 90 75 91
86 76 69 84 87 86 77 77 91 82 95 97 99 88 92 76 100 92 81 82 89 88 92 87 78 67 66 80 84 86 100 100 100 99 82 100 100 97 88 94 100 100 100 85
93 97 86 88 90 88 81 87 91 84 89 100 100 98 94 82 97 100 86 79 89 98 86 92 83 68 81 88 93 93 66 67 72 94 89 84 93 98 72 97 100 83 90 89
75 80 81 81 85 95 93 92 100 100 99 100 100 99 96 92 89 100 94 92 91 92 95 98 91 92 83 77 78 76 90 85 74 76 82 73 70 67 76 74 79 88 74 89
74 68 70 86 93 84 89 100 100 99 100 100 100 84 93 94 95 94 98 100 93 96 99 96 86 82 75 85 90 94 98 98 99 94 86 89 97 98 99 99 99 100 100 100
74 69 70 75 98 94 96 83 90 97 100 100 100 95 81 86 85 81 100 92 98 93 91 96 100 100 99 98 97 98 100 100 100 100 100 100 100 100 100 100 100 100 98 88
Wind_Speed
78 76 74 80 83 83 81 79 78 80 75 70 72 69 73 78 73 74 76 78 77 78 79 77 77 77 77 77 75 73 69 65 64 63 62 58 58 58 57 57 56 55 53 53
79 75 77 77 79 79 77 77 81 81 78 75 74 70 74 77 75 75 75 74 77 77 80 80 80 79 79 80 80 79 75 70 66 66 66 63 60 59 62 64 61 58 53 52
84 79 73 75 72 70 73 76 78 77 78 78 80 78 79 79 80 79 79 80 79 78 79 81 81 82 84 82 82 83 83 76 70 68 69 66 65 64 65 65 66 61 58 57
86 83 77 76 74 69 67 71 72 73 77 76 76 76 81 85 87 88 89 87 86 87 87 88 88 87 87 87 87 87 87 81 78 75 72 74 72 70 70 70 70 67 65 60
82 82 76 77 75 70 66 66 66 66 67 70 73 72 75 84 89 92 95 95 95 94 95 96 97 96 95 94 94 93 93 90 87 83 79 78 79 75 73 70 65 61 62 61
86 78 72 70 68 64 65 65 64 62 62 59 66 66 61 72 80 87 92 95 97 100 101 100 99 100 101 101 100 99 98 96 94 90 86 82 79 81 76 74 71 66 65 68
87 82 75 73 71 68 67 66 65 64 65 63 64 62 64 71 76 79 83 87 92 94 97 101 104 105 105 106 106 105 105 102 99 94 91 87 82 81 82 76 75 73 69 71
73 75 72 72 74 71 71 63 64 64 65 65 65 64 71 78 75 74 76 78 82 87 92 95 96 97 99 102 105 106 105 105 104 100 95 91 85 81 82 79 76 75 73 73
64 66 68 67 70 72 70 66 66 65 64 67 68 66 72 71 67 66 69 71 75 77 82 86 91 96 100 102 105 107 109 109 109 108 102 95 88 84 84 84 78 75 75 76
54 55 59 60 59 61 63 61 64 69 66 62 63 58 61 56 55 58 63 67 73 78 84 89 94 97 101 104 105 108 111 112 114 111 108 99 91 90 90 87 81 75 75 75
48 49 46 46 46 50 55 60 61 57 52 46 40 47 45 48 52 58 65 71 76 82 86 89 91 95 99 103 105 105 108 109 110 109 105 103 98 95 91 88 80 72 72 72
42 44 45 48 48 48 46 46 40 37 34 33 36 41 35 42 48 57 63 68 75 81 86 90 91 87 87 89 86 84 85 90 86 89 91 92 93 94 92 89 83 77 71 71
38 42 44 42 41 38 32 34 32 32 31 31 31 33 36 42 53 58 61 66 65 66 66 65 67 68 67 59 64 65 64 65 64 66 75 78 81 85 82 82 76 73 70 64
29 30 32 34 33 31 32 30 29 26 24 24 27 30 35 42 51 54 56 49 51 53 55 54 52 49 48 45 48 50 48 41 41 50 59 65 69 70 71 68 67 66 65 65
30 29 29 29 30 29 29 28 21 22 21 24 23 24 37 46 42 39 35 38 43 41 40 42 34 27 25 22 24 27 24 24 28 37 43 45 48 51 49 51 49 51 52 50
29 28 29 30 29 29 27 24 23 22 23 21 26 29 33 34 33 29 26 32 34 28 21 16 12 5 10 18 19 17 17 17 15 22 32 35 39 39 38 35 36 41 44 45
28 32 34 32 29 25 25 25 28 27 18 19 20 30 34 31 31 29 22 25 25 27 23 12 3 11 11 9 8 10 9 10 14 22 25 29 32 33 33 34 34 34 37 43
35 36 32 28 26 26 25 27 25 19 15 18 20 29 31 32 29 25 16 15 18 22 25 27 29 27 22 13 9 14 19 20 24 23 30 32 33 29 26 26 27 30 27 30
33 28 26 24 25 25 24 20 21 17 15 17 22 26 30 31 25 23 13 9 14 19 24 29 29 30 29 28 28 33 34 33 31 29 27 25 22 21 21 22 23 21 27 31
27 25 24 26 27 27 24 20 19 17 15 18 24 26 30 29 22 23 16 5 4 9 12 20 27 29 30 34 36 34 37 33 30 29 26 24 21 23 26 20 24 31 34 40
25 27 26 22 21 22 21 19 16 15 15 18 23 27 27 28 20 19 19 11 2 3 3 6 13 24 24 24 30 27 25 28 30 28 27 24 21 23 26 35 40 40 44 48
25 28 24 19 22 19 19 17 15 17 14 16 22 26 26 24 21 15 16 12 7 2 6 5 4 6 14 19 21 27 28 25 24 26 29 24 25 29 35 37 42 45 51 55
27 26 26 18 20 17 17 14 14 15 15 17 20 24 26 23 18 13 13 12 8 5 4 2 5 8 5 11 14 12 14 18 23 29 30 28 27 29 36 40 44 51 55 58
32 27 22 21 18 15 12 12 12 15 17 19 20 22 23 22 17 13 10 9 10 4 3 3 4 2 4 3 7 10 12 14 14 19 25 23 26 32 34 38 41 44 46 50
30 30 24 20 20 13 13 12 13 13 17 18 22 22 24 19 16 11 10 8 6 6 4 1 5 7 5 3 6 7 9 13 17 20 23 25 28 32 37 40 43 46 51 53
32 33 31 27 23 18 17 13 13 14 18 21 23 24 23 17 15 10 10 8 6 3 2 2 2 3 4 5 5 5 7 9 14 18 21 26 29 32 35 38 42 46 49 52
Wind_Direction
226 226 228 231 231 232 232 233 235 237 237 238 239 240 243 248 250 253 255 257 257 257 258 261 262 263 265 267 268 268 271 275 275 271 268 265 267 271 271 272 273 277 279 277
226 227 228 229 231 232 235 236 236 239 240 240 240 241 242 246 248 249 251 254 258 259 260 260 262 263 265 266 268 268 269 270 270 271 268 266 270 272 270 270 273 276 276 275
225 228 230 232 234 235 236 237 238 239 240 241 243 242 244 245 248 249 251 253 253 256 259 259 259 261 263 264 265 267 269 268 266 264 267 266 266 268 269 269 269 271 275 275
224 227 232 233 236 236 238 239 239 241 241 242 244 245 249 250 251 252 253 252 254 254 256 258 259 259 260 262 265 268 269 267 266 265 263 265 265 265 268 269 270 270 274 274
225 228 229 232 235 237 239 241 240 241 243 243 244 244 253 252 252 254 255 255 256 255 255 256 259 260 261 262 263 264 265 266 266 265 265 266 269 268 266 266 265 264 265 268
223 228 230 230 234 238 241 241 239 242 245 246 249 247 250 260 259 255 255 256 256 257 259 260 260 262 264 264 263 263 263 264 265 266 265 264 263 267 267 266 265 264 265 266
224 227 229 230 233 237 241 244 243 243 246 248 255 255 256 259 259 260 260 257 257 259 260 260 261 261 262 264 264 264 264 263 262 261 262 261 260 261 264 264 266 266 266 268
224 228 231 234 231 235 241 243 245 247 251 254 258 262 263 265 260 258 260 261 260 259 259 259 259 260 262 263 264 264 264 264 263 262 260 258 257 258 262 263 263 264 265 268
223 226 229 233 235 238 240 244 245 247 252 255 260 263 265 263 264 262 261 260 262 263 263 262 261 261 261 261 262 263 264 264 263 262 259 256 257 258 261 262 262 262 264 265
218 224 228 231 233 237 239 243 245 249 254 259 261 259 259 265 267 268 267 265 265 265 266 265 265 265 265 265 264 263 262 262 263 263 263 261 255 255 257 259 261 261 263 263
216 216 219 224 228 233 237 242 248 253 254 251 252 258 265 270 273 274 274 273 273 272 273 272 269 268 268 267 266 265 265 265 265 264 262 261 260 257 255 256 258 259 258 260
216 220 222 228 234 239 241 244 240 236 240 247 249 257 266 272 274 275 276 278 278 278 278 277 277 273 270 269 269 268 264 261 258 256 255 254 254 252 252 254 256 255 257 258
215 220 224 229 231 230 220 225 231 239 240 237 245 255 267 276 278 283 290 288 284 282 281 279 275 277 276 272 265 261 257 254 251 245 240 234 235 242 244 248 250 252 253 254
191 192 199 204 207 214 220 227 226 224 230 242 249 271 289 294 296 301 297 296 297 294 291 290 286 278 272 266 257 255 258 257 249 240 237 235 232 231 235 241 245 250 251 254
185 187 193 202 211 215 215 205 202 212 228 250 262 278 291 298 301 306 310 317 312 308 295 289 285 278 268 261 254 251 249 246 239 235 223 218 219 222 225 234 242 245 249 251
191 198 205 205 208 195 193 196 206 215 227 249 267 291 299 316 318 332 333 329 330 330 332 309 267 260 225 214 214 211 208 208 214 208 195 193 200 203 214 225 231 238 247 256
199 196 197 192 185 193 199 201 215 226 240 266 287 303 315 333 340 349 344 345 349 6 8 4 109 119 106 124 156 154 175 172 153 148 157 178 185 195 207 220 235 246 256 261
183 184 186 188 192 198 209 214 222 231 259 282 303 315 330 339 343 354 352 355 20 40 48 51 67 70 76 70 117 124 123 122 123 142 156 171 182 195 207 223 240 248 244 259
179 186 190 191 197 211 208 199 223 236 273 292 313 330 336 344 345 356 2 1 36 42 68 81 84 86 92 100 105 104 98 102 113 133 146 162 175 192 207 214 220 242 249 255
188 193 195 197 203 207 202 212 225 251 285 302 317 332 337 343 343 349 13 2 25 63 70 87 93 90 91 95 100 103 110 108 119 128 137 158 171 194 194 218 238 231 221 241
199 198 194 192 200 207 213 221 241 265 288 303 319 328 335 342 345 340 358 34 291 257 166 131 122 118 117 123 118 117 127 142 143 145 154 160 188 186 198 204 225 236 238 241
203 204 199 207 213 216 224 232 248 270 284 309 321 329 332 341 343 329 345 2 25 339 279 244 170 172 141 136 140 140 142 148 160 173 178 180 207 215 222 225 236 244 252 257
202 203 201 212 218 225 229 241 256 274 288 304 316 324 330 336 345 325 325 349 358 342 9 22 313 266 173 158 163 171 188 188 199 202 203 220 224 239 234 236 242 249 251 261
209 212 215 222 230 235 236 254 278 285 297 300 307 316 327 331 344 325 303 325 353 354 298 287 327 24 348 202 201 209 215 230 228 232 234 245 256 246 249 256 268 269 274 283
215 220 217 223 228 223 235 252 269 287 296 298 299 305 316 319 331 322 283 302 345 36 43 303 293 301 312 292 292 294 288 282 279 280 278 279 278 277 281 286 288 286 283 281
218 219 222 222 229 230 242 252 268 282 288 297 296 295 305 307 314 312 269 255 282 302 14 17 14 4 341 322 313 298 285 277 271 271 274 274 275 275 276 277 279 283 286 287